Content
SEND FEEDBACK

Daily
Averages
Monthly
Summary
United States of America

WILMINGTON, NORTH CAROLINA


Home > North America > United States > North Carolina
Elevation: 72 feet     Latitude: 34 16N     Longitude: 077 54W

WEATHER
 
SELECT A DAY
Number of Records: 213,228;   Date Range: 1/1/95 - 11/23/14
 
SHARE

PRINT THIS DATA

[ ← Previous Day ]
WEATHER ALMANAC - JANUARY 1, 2013
[ Next Day → ]
[ °C ]   °F
Weather ElementAverageHighLow
Temperature53.9 °F55.9 °F (10:53 am)51.1 °F (1:53 am)
Dewpoint47.9 °F51.1 °F (3:53 pm)44.1 °F (1:53 am)
Humidity80.4 %97 % (10:53 pm)69 % (10:53 am)
Barometer30.06 in30.15 in (9:53 am)29.96 in (11:53 pm)
Wind Speed5.8 mph10.4 mph (2:53 am)
Weather ElementAverage
Visibility9.7 mi
Wind DirectionSSW (205.2 °)

Weather ElementTotal
Precipitation0.02 in
Heating Degree Days11.5 (Base 65)
Growing Degree Days3.5 (Base 50)
Averaged from 23 records on January 1, 2013
WEATHER CONDITIONS BREAKOUT
WIND DIRECTION BREAKOUT
WEATHER BY HOUR - JANUARY 1, 2013
[ °C ]   °F
Local TimeTemperatureDewpointHumidityBarometerVisibilityWind DirectionWind SpeedGust SpeedPrecipitationEventsConditions
1:53 AM51.1 °F44.1 °F77 %30.13 in10.0 miWSW (240°)6.9 mphOvercast
2:53 AM53.1 °F44.1 °F71 %30.11 in10.0 miSW (230°)10.4 mphOvercast
3:53 AM52.0 °F44.1 °F74 %30.10 in10.0 miWSW (240°)6.9 mphOvercast
4:53 AM52.0 °F44.1 °F74 %30.09 in10.0 miSW (220°)5.8 mphOvercast
5:53 AM54.0 °F45.0 °F72 %30.10 in10.0 miWSW (250°)9.2 mphOvercast
6:53 AM54.0 °F45.0 °F72 %30.10 in10.0 miWSW (250°)8.1 mphOvercast
7:53 AM53.1 °F45.0 °F74 %30.13 in10.0 miWest (260°)6.9 mphOvercast
8:53 AM54.0 °F45.0 °F72 %30.14 in10.0 miSW (230°)5.8 mphOvercast
9:53 AM55.0 °F46.0 °F72 %30.15 in10.0 miWest (260°)5.8 mphMostly Cloudy
10:53 AM55.9 °F46.0 °F69 %30.14 in10.0 miWest (260°)8.1 mphOvercast
11:53 AM55.0 °F46.9 °F74 %30.11 in10.0 miWSW (250°)5.8 mphOvercast
12:53 PM54.0 °F48.0 °F80 %30.07 in10.0 miWest (280°)5.8 mph0.01 inRainLight Rain
1:53 PM54.0 °F48.9 °F83 %30.05 in8.0 miSW (230°)6.9 mph0.00 inRainLight Rain
2:53 PM54.0 °F50.0 °F86 %30.04 in10.0 miWest (260°)5.8 mph0.01 inOvercast
3:53 PM55.0 °F51.1 °F86 %30.03 in10.0 miWSW (240°)8.1 mph0.00 inOvercast
4:53 PM55.0 °F51.1 °F86 %30.01 in10.0 miSSW (210°)8.1 mphOvercast
5:53 PM55.0 °F51.1 °F86 %30.01 in10.0 miSW (230°)6.9 mphOvercast
6:53 PM55.0 °F51.1 °F86 %30.02 in10.0 miWSW (250°)3.5 mphOvercast
7:53 PM54.0 °F51.1 °F90 %30.02 in10.0 miNW (320°)3.5 mphOvercast
8:53 PM55.0 °F51.1 °F86 %30.01 in10.0 miNorth (10°)4.6 mphOvercast
9:53 PM54.0 °F51.1 °F90 %29.98 in10.0 miCalmOvercast
10:53 PM52.0 °F51.1 °F97 %29.98 in9.0 miCalmMostly Cloudy
11:53 PM53.1 °F51.1 °F93 %29.96 in7.0 miCalmOvercast
Hourly data recorded from KILM, located miles away from Wilmington, North Carolina







STORIES FROM OUR PARTNERS